Weather History for Frederick, MD

Change the Weather History Date:

Friday, January 11, 2013

  Actual Average (KHGR) Record (KHGR)
Temperature  
Mean Temperature 38 °F -  
Max Temperature 44 °F 36 °F 53 °F (2008)
Min Temperature 32 °F 22 °F 10 °F (2004)
Degree Days  
Heating Degree Days 27    
Moisture  
Dew Point 36 °F    
Average Humidity 95    
Maximum Humidity 100    
Minimum Humidity 71    
Precipitation  
Precipitation 0.00 in - - ()
Sea Level Pressure  
Sea Level Pressure 30.31 in    
Wind  
Wind Speed 1 mph (SE)    
Max Wind Speed 7 mph    
Max Gust Speed -    
Visibility 6 miles    
Events Fog , Rain , Snow , Thunderstorm    
Averages and records for this station are not official NWS values.
T = Trace of Precipitation, MM = Missing Value Source: NWS Daily Summary

Daily Weather History Graph

Daily Weather History Graph

Search for Another Location

Airport:

Trip Planner

Search our weather history database for the weather conditions in past years. The results will help you decide how hot, cold, wet, or windy it might be!

Date:

Astronomy

Jan. 11, 2013 Rise Set
Actual Time 7:29 AM EST 5:06 PM EST
Civil Twilight 6:59 AM EST 5:36 PM EST
Nautical Twilight 6:26 AM EST 6:09 PM EST
Astronomical Twilight 5:53 AM EST 6:41 PM EST
Moon 7:00 AM EST (1/11) 5:21 PM EST (1/11)
Length of Visible Light 10h 36m
Length of Day
9h 37m
Waning Crescent, 0% of the Moon is Illuminated
Jan 11
Waning Crescent
Jan 11
New
Jan 18
First Quarter
Jan 26
Full
Feb 3
Last Quarter

Hourly Weather History & Observations

Time (EST) Temp. Windchill Dew Point Humidity Pressure Visibility Wind Dir Wind Speed Gust Speed Precip Events Conditions
12:10 AM 35.6 °F - 32.0 °F 87% 30.53 in 10.0 mi Calm Calm - N/A   Clear
12:35 AM 33.8 °F - 32.0 °F 93% 30.53 in 10.0 mi Calm Calm - N/A   Clear
1:35 AM 33.8 °F - 32.0 °F 93% 30.52 in 10.0 mi Calm Calm - N/A   Clear
2:00 AM 33.8 °F - 32.0 °F 93% 30.51 in 10.0 mi Calm Calm - N/A   Clear
2:20 AM 32.0 °F - 32.0 °F 100% 30.52 in 10.0 mi Calm Calm - N/A   Clear
2:40 AM 32.0 °F - 32.0 °F 100% 30.51 in 10.0 mi Calm Calm - N/A   Clear
3:00 AM 32.0 °F - 32.0 °F 100% 30.50 in 10.0 mi Calm Calm - N/A Snow Light Snow
3:25 AM 32.0 °F - 32.0 °F 100% 30.50 in 10.0 mi Calm Calm - N/A Snow Light Snow
3:45 AM 32.0 °F - 32.0 °F 100% 30.49 in 10.0 mi Calm Calm - N/A   Mostly Cloudy
4:05 AM 32.0 °F - 32.0 °F 100% 30.48 in 10.0 mi Calm Calm - N/A   Overcast
4:25 AM 32.0 °F - 32.0 °F 100% 30.48 in 10.0 mi Calm Calm - N/A   Mostly Cloudy
4:50 AM 32.0 °F - 32.0 °F 100% 30.48 in 10.0 mi Calm Calm - N/A   Scattered Clouds
5:10 AM 32.0 °F 28.7 °F 32.0 °F 100% 30.47 in 10.0 mi ENE 3.5 mph - N/A   Mostly Cloudy
5:30 AM 32.0 °F - 32.0 °F 100% 30.45 in 10.0 mi Calm Calm - N/A   Scattered Clouds
5:50 AM 33.8 °F - 32.0 °F 93% 30.45 in 10.0 mi Calm Calm - N/A   Scattered Clouds
6:47 AM 32.0 °F - 30.2 °F 93% 30.44 in 10.0 mi Calm Calm - N/A   Scattered Clouds
7:50 AM 33.8 °F - 33.8 °F 100% 30.45 in 7.0 mi Calm Calm - N/A Rain Light Rain
8:50 AM 35.6 °F - 35.6 °F 100% 30.43 in 10.0 mi Calm Calm - N/A   Mostly Cloudy
9:50 AM 39.2 °F - 35.6 °F 87% 30.39 in 10.0 mi Calm Calm - N/A   Mostly Cloudy
10:45 AM 41.0 °F - 35.6 °F 81% 30.37 in 10.0 mi Calm Calm - N/A   Overcast
11:51 AM 44.6 °F 43.1 °F 35.6 °F 71% 30.31 in 10.0 mi Variable 3.5 mph - N/A   Overcast
12:47 PM 44.6 °F 42.2 °F 35.6 °F 71% 30.27 in 10.0 mi SSE 4.6 mph - N/A   Overcast
1:50 PM 44.6 °F - 35.6 °F 71% 30.24 in 10.0 mi Calm Calm - N/A   Overcast
2:19 PM 44.6 °F 42.2 °F 37.4 °F 76% 30.22 in 7.0 mi South 4.6 mph - N/A Rain , Thunderstorm Light Thunderstorms and Rain
2:50 PM 44.6 °F 40.7 °F 37.4 °F 76% 30.22 in 7.0 mi South 6.9 mph - N/A   Overcast
3:30 PM 42.8 °F 40.1 °F 39.2 °F 87% 30.21 in 2.5 mi SSE 4.6 mph - N/A Rain Heavy Rain
3:55 PM 42.8 °F - 42.8 °F 100% 30.21 in 4.0 mi Calm Calm - N/A Rain Rain
4:14 PM 42.8 °F 41.1 °F 42.8 °F 100% 30.19 in 1.5 mi ESE 3.5 mph - N/A Rain Rain
4:50 PM 41.0 °F 39.0 °F 41.0 °F 100% 30.18 in 3.0 mi SE 3.5 mph - N/A   Overcast
5:45 PM 41.0 °F - 41.0 °F 100% 30.17 in 4.0 mi Calm Calm - N/A   Overcast
6:45 PM 41.0 °F - 41.0 °F 100% 30.16 in 1.8 mi Calm Calm - N/A   Overcast
7:45 PM 39.2 °F - 39.2 °F 100% 30.16 in 1.8 mi Calm Calm - N/A   Overcast
8:05 PM 39.2 °F - 39.2 °F 100% 30.15 in 1.8 mi Calm Calm - N/A   Overcast
8:25 PM 39.2 °F 37.0 °F 39.2 °F 100% 30.15 in 1.2 mi NNE 3.5 mph - N/A   Overcast
8:45 PM 39.2 °F 35.9 °F 39.2 °F 100% 30.15 in 1.0 mi North 4.6 mph - N/A   Overcast
9:05 PM 39.2 °F - 39.2 °F 100% 30.14 in 0.8 mi Calm Calm - N/A   Overcast
9:30 PM 39.2 °F - 39.2 °F 100% 30.14 in 0.5 mi Calm Calm - N/A Fog Fog
9:50 PM 39.2 °F - 39.2 °F 100% 30.14 in 0.5 mi Calm Calm - N/A Fog Fog
10:10 PM 39.2 °F - 39.2 °F 100% 30.14 in 0.5 mi Calm Calm - N/A Fog Fog
10:30 PM 39.2 °F - 39.2 °F 100% 30.13 in 0.2 mi Calm Calm - N/A Fog Fog
10:55 PM 39.2 °F - 39.2 °F 100% 30.13 in 0.2 mi Calm Calm - N/A Fog Fog
11:15 PM 39.2 °F - 39.2 °F 100% 30.13 in 0.2 mi Calm Calm - N/A Fog Fog
11:35 PM 39.2 °F - 39.2 °F 100% 30.14 in 0.2 mi Calm Calm - N/A Fog Fog
11:55 PM 39.2 °F - 39.2 °F 100% 30.13 in 0.2 mi Calm Calm - N/A Fog Fog